Dewpoint
31 28 23 21 22 20 19 17 17 20 21 19 20 21 23 26 44 46 48 49 50 49 49 50 51 52 53 54 54 55 56 56 56 55 55 56 55 55 56 54 55 56 54 53
27 27 28 25 24 22 20 19 19 21 21 19 19 21 25 30 34 41 45 48 49 48 49 50 51 52 52 52 52 54 56 56 56 56 56 56 54 54 55 55 55 55 54 53
25 25 27 24 23 22 22 21 21 18 20 22 24 23 22 27 35 39 44 46 47 47 48 50 50 50 51 52 53 53 55 55 56 56 57 57 56 54 53 52 54 54 56 56
25 25 24 23 22 23 21 23 22 20 18 14 24 18 22 22 24 30 36 43 44 46 48 49 49 49 50 51 52 53 54 55 55 56 55 54 52 51 53 52 51 52 54 55
23 26 24 22 21 24 19 23 22 22 20 22 21 20 21 24 23 23 27 35 43 44 47 48 49 49 49 50 50 52 53 53 54 55 54 54 52 52 52 51 49 49 51 53
21 29 26 22 25 24 25 22 25 26 24 20 21 20 19 20 21 22 25 31 40 44 46 48 49 50 49 50 50 51 52 51 52 53 53 53 52 52 50 51 50 49 49 51
25 25 26 26 24 25 24 23 18 19 21 19 24 21 20 22 24 25 26 28 36 43 46 48 49 49 49 49 50 51 51 51 51 51 51 52 51 52 51 50 50 50 49 49
20 18 25 27 25 24 24 21 19 16 18 18 28 21 20 27 29 30 31 32 35 42 46 48 48 49 49 49 50 50 50 51 51 50 50 51 52 52 51 51 50 50 49 48
17 17 23 25 26 25 24 22 24 23 29 23 23 25 25 24 24 25 28 28 32 39 44 47 48 49 49 49 49 49 49 50 51 51 50 49 50 50 50 50 51 51 51 51
22 18 23 23 25 26 24 26 22 24 17 17 21 23 19 20 20 23 28 25 31 38 43 46 48 49 49 49 49 50 49 49 50 51 51 50 50 49 50 50 50 50 50 51
24 21 21 24 21 21 23 22 25 24 23 18 17 20 27 24 24 25 29 28 27 30 40 44 48 49 49 49 49 49 49 49 49 50 50 50 50 50 50 50 50 50 51 51
31 21 17 19 21 24 23 23 24 21 21 26 23 19 24 26 29 31 29 29 29 28 36 41 44 49 49 48 48 48 48 48 49 50 50 50 50 50 50 50 50 51 51 52
36 30 22 21 21 26 24 23 23 27 25 22 22 21 26 28 28 28 29 31 30 29 29 40 41 46 48 48 48 48 49 48 48 49 49 50 50 50 49 50 50 51 51 52
36 33 28 23 27 33 31 31 31 25 21 20 22 22 23 24 27 29 29 29 30 30 29 31 40 42 45 48 48 48 49 49 48 48 48 49 49 49 49 49 49 50 51 51
36 28 30 33 33 34 30 28 29 27 25 22 22 23 23 25 26 26 29 29 29 29 30 31 31 39 43 46 49 49 49 50 49 48 48 48 49 49 49 50 50 51 51 52
27 32 32 27 30 31 26 27 23 26 25 25 24 24 27 30 29 28 28 29 28 29 29 29 31 33 39 45 47 49 50 51 50 49 48 48 49 49 50 50 50 51 51 52
26 32 28 19 29 24 17 25 25 27 27 27 22 20 22 33 34 32 30 30 29 28 30 31 32 32 35 40 45 47 49 51 51 51 50 49 49 49 49 50 50 51 52 53
25 31 30 25 26 12 18 29 27 28 28 25 22 21 35 37 38 37 34 29 31 31 29 31 32 34 34 36 42 46 48 50 51 51 51 51 51 50 50 50 50 51 53 53
32 30 30 25 23 23 18 21 29 26 17 29 33 37 37 38 37 35 36 39 40 39 36 31 32 33 34 35 39 44 47 48 49 50 51 51 52 51 52 52 52 54 53 52
35 35 31 28 22 16 16 22 32 27 14 31 35 35 35 37 34 35 37 41 41 40 39 37 35 34 34 35 42 45 46 48 49 50 51 52 52 53 54 54 53 49 48 45
30 30 28 27 25 26 27 29 33 19 18 29 34 35 34 35 36 37 41 40 40 41 43 46 47 45 47 48 50 49 51 50 51 52 52 52 52 50 48 46 44 42 40 38
26 25 27 27 26 21 30 35 29 34 36 34 34 33 33 36 39 39 39 39 40 41 44 46 47 47 48 50 52 50 48 48 48 47 45 44 44 43 42 41 39 37 35 33
27 28 26 27 26 30 37 37 38 39 39 39 39 37 38 40 41 40 38 39 41 41 43 44 44 43 43 45 48 46 44 44 43 41 40 40 39 39 38 37 35 34 33 32
30 32 29 28 28 32 38 39 37 38 37 35 37 34 33 32 34 36 39 39 39 40 40 41 41 40 40 41 42 43 42 41 40 38 36 35 34 33 33 34 34 32 32 31
25 30 30 30 31 34 38 37 36 36 35 34 33 31 29 28 30 33 31 31 32 32 33 34 35 35 35 35 35 36 37 37 35 34 33 32 31 30 29 29 30 30 31 31
34 32 30 27 35 35 35 35 33 34 32 31 30 29 28 28 27 27 27 27 27 28 28 28 28 28 29 30 31 31 33 33 32 30 30 29 28 28 27 26 26 28 28 27
Wind_Speed
7 11 22 21 21 8 10 8 6 5 5 4 8 13 20 9 11 14 16 17 16 16 12 11 11 11 11 9 9 10 10 21 18 19 18 17 18 12 13 17 18 15 17 17
6 24 18 10 12 16 9 7 10 11 7 9 11 16 18 9 9 11 18 18 18 15 14 15 15 14 14 13 14 11 13 18 19 19 19 15 21 6 10 15 15 19 20 19
25 6 20 19 13 16 17 16 11 12 7 5 5 8 9 6 7 8 11 15 16 20 19 19 19 19 17 17 16 15 13 18 22 20 15 12 16 8 9 13 15 17 17 17
17 15 14 16 22 17 21 13 11 8 4 7 3 12 11 13 13 11 12 14 17 20 21 21 22 21 21 19 16 15 15 15 14 22 22 25 29 24 21 16 14 10 11 15
12 14 17 17 16 20 16 10 13 10 9 6 4 9 4 5 13 14 11 13 19 23 25 26 26 24 22 20 20 18 17 17 19 20 22 22 24 21 13 14 19 12 13 14
13 3 15 19 8 22 9 4 4 3 3 11 10 9 7 7 13 10 11 8 11 20 22 21 22 22 20 19 19 20 23 20 19 21 22 24 24 21 13 17 18 16 13 13
9 12 4 7 12 9 9 9 4 7 8 13 2 9 19 12 16 16 17 14 6 16 22 22 25 25 23 23 23 22 23 25 25 23 23 23 24 24 21 19 22 23 19 15
16 11 18 10 8 9 20 18 9 11 12 9 4 7 8 11 12 11 14 14 9 12 20 25 27 27 26 26 27 25 26 25 25 26 25 24 26 24 27 27 25 25 24 21
15 14 7 12 9 10 7 12 10 1 2 1 3 5 13 14 11 14 12 12 15 10 18 23 24 26 27 27 29 30 29 28 29 29 27 26 26 26 26 24 22 22 22 18
7 3 6 6 6 8 11 14 9 5 10 13 4 4 10 9 13 9 6 8 8 6 13 18 22 25 25 26 28 28 29 31 30 29 28 28 28 26 23 22 24 23 22 21
4 3 3 6 7 15 9 15 3 5 6 9 9 6 11 17 14 10 8 6 6 7 12 17 20 21 23 22 25 27 28 29 28 29 28 28 28 29 26 26 25 25 23 23
2 2 9 7 1 5 4 8 14 11 7 2 5 15 7 11 13 8 13 10 8 4 6 11 16 19 23 26 26 29 28 28 30 27 27 27 25 27 27 28 29 25 25 23
6 1 5 4 2 4 2 2 7 4 5 13 14 7 5 8 14 20 16 12 8 5 6 7 13 19 22 24 26 28 29 31 27 27 27 26 28 28 32 34 32 26 27 28
2 3 2 6 4 2 0 7 4 4 7 10 12 9 10 15 16 16 14 14 12 10 8 7 11 17 20 22 25 27 27 27 27 28 28 29 31 35 33 27 26 29 27 28
4 3 1 2 2 3 3 5 6 6 9 7 6 9 13 16 18 21 19 19 17 17 13 12 14 16 16 18 20 23 24 26 27 27 29 33 33 28 28 27 27 28 27 28
11 4 3 2 3 2 7 10 5 4 2 7 9 11 9 20 23 22 22 18 19 21 21 22 17 15 18 21 22 21 23 25 26 28 33 27 24 25 27 27 27 26 27 26
6 2 5 6 3 5 7 10 5 2 3 3 2 5 12 16 19 21 24 24 17 16 20 22 22 19 20 22 24 25 26 21 26 28 26 25 24 25 25 24 25 27 28 25
7 4 0 1 1 8 2 5 7 5 6 9 8 10 7 10 18 20 16 19 23 18 19 21 20 17 18 18 17 20 17 23 25 26 23 22 22 23 21 21 24 24 22 23
18 5 3 3 6 7 11 3 7 6 9 7 6 7 10 12 9 7 11 19 23 24 25 23 19 18 13 16 17 17 19 22 22 25 23 21 21 21 21 23 21 18 15 15
13 11 5 3 3 5 3 1 3 3 8 3 3 8 12 10 11 10 23 23 26 22 21 21 20 18 13 12 9 15 17 17 20 16 15 15 16 15 14 13 14 8 8 8
8 5 13 8 5 6 12 9 2 4 2 10 4 8 10 9 7 16 16 21 24 21 22 18 13 8 8 8 5 9 9 10 11 13 14 14 12 13 13 11 9 11 12 14
10 11 8 9 5 10 2 2 2 8 11 11 14 9 6 11 15 13 17 20 24 23 20 18 10 10 10 6 7 9 13 11 14 18 17 16 15 13 13 15 13 13 15 16
7 8 6 10 7 1 6 5 9 10 14 14 16 18 14 13 19 21 20 19 20 20 18 13 10 14 17 15 7 11 9 13 16 18 18 19 17 17 14 15 15 15 14 15
6 5 5 2 3 4 3 5 9 10 12 16 16 13 16 17 19 22 19 17 18 20 20 14 13 17 19 20 17 11 10 13 18 19 17 18 19 19 18 15 13 14 13 14
6 5 7 8 8 5 4 10 11 12 14 16 13 12 13 14 17 18 19 21 18 18 20 19 17 16 19 17 19 18 13 12 16 17 17 17 20 21 22 21 16 15 13 9
2 1 5 4 4 3 6 8 11 12 13 14 15 14 11 14 15 14 16 15 17 19 18 16 16 20 19 21 19 17 16 12 15 19 16 17 18 17 18 20 25 30 25 26
Wind_Direction
191 196 210 201 206 205 170 194 228 246 232 270 234 272 291 292 234 227 215 202 211 216 214 197 193 192 195 195 193 186 176 175 160 168 168 167 173 168 180 199 198 197 197 187
167 222 213 193 207 213 208 188 246 284 249 224 276 294 296 267 256 233 226 211 210 208 197 196 192 191 195 192 191 192 176 168 174 173 173 176 179 149 191 196 205 201 192 186
206 223 188 195 203 202 225 216 224 245 330 261 299 280 294 293 264 259 229 217 211 205 198 191 196 199 195 197 189 187 178 178 173 168 163 147 143 146 177 177 184 192 183 183
223 228 186 202 212 192 232 213 230 240 291 264 353 286 283 288 280 267 249 212 211 205 201 190 191 198 202 200 190 191 180 175 171 164 169 163 173 184 197 180 164 175 180 173
215 206 200 204 216 189 233 184 210 227 235 278 255 273 263 278 274 266 260 232 215 203 198 195 190 195 200 196 193 187 183 172 176 178 172 172 182 196 190 173 157 184 208 203
220 195 195 210 187 198 178 178 101 73 181 254 230 223 274 251 246 259 270 263 216 205 203 199 191 185 194 192 195 189 180 180 176 181 182 177 180 183 181 179 182 194 207 207
205 217 192 173 193 173 175 139 199 218 213 248 221 192 254 249 254 254 272 289 220 205 196 191 186 187 188 192 191 193 191 185 183 184 187 189 185 189 192 191 193 199 213 206
203 225 200 203 179 188 198 194 190 214 223 239 145 224 243 263 277 272 263 272 260 206 200 195 195 191 190 190 190 192 196 194 190 189 190 189 195 195 201 206 205 207 217 214
201 228 187 190 182 169 172 197 202 167 78 321 224 265 283 282 278 274 275 289 264 213 203 202 194 196 193 192 192 192 195 199 197 196 195 197 197 201 203 207 213 215 219 225
199 197 193 185 158 210 199 157 191 212 235 246 230 245 237 290 269 303 303 293 262 213 206 202 199 201 202 197 194 196 198 200 200 201 199 201 203 207 209 210 216 219 224 224
171 170 172 157 182 185 185 212 192 190 207 239 247 239 222 248 271 271 309 305 312 266 218 210 206 201 201 198 198 198 201 203 204 203 205 204 205 206 207 213 216 219 222 226
265 140 219 217 132 127 142 206 214 227 212 208 243 242 286 264 271 248 285 303 299 296 245 215 207 200 197 199 198 202 203 206 206 202 203 209 206 208 209 213 218 215 221 225
348 75 139 141 290 57 183 324 232 204 181 228 241 255 292 286 275 284 280 283 274 272 271 211 202 208 207 204 202 203 203 206 204 204 204 204 209 213 216 216 211 210 217 219
352 73 70 184 105 58 345 316 308 227 241 245 239 258 268 280 278 282 276 280 253 244 253 235 221 219 215 209 206 207 205 202 199 202 203 206 207 210 213 217 214 214 215 216
29 132 209 292 258 165 241 284 291 240 232 230 250 241 262 280 285 288 292 288 292 291 274 249 244 235 226 218 214 218 211 202 198 202 206 213 213 213 212 213 212 216 220 222
345 171 145 265 277 205 285 291 285 210 241 235 253 274 337 318 308 293 285 284 280 284 283 281 265 241 229 222 218 218 213 204 197 205 214 216 215 215 213 212 213 216 220 224
304 180 171 239 216 321 283 211 180 144 132 164 109 274 302 313 322 314 305 291 269 294 283 280 270 257 239 226 217 214 212 197 201 209 214 211 211 215 218 218 219 221 224 225
262 329 212 201 232 252 262 157 224 255 233 205 259 271 256 286 301 304 289 295 302 302 292 281 264 253 249 251 234 227 206 199 202 212 214 208 206 214 218 219 223 225 228 228
206 207 200 229 209 307 299 219 197 211 290 21 11 335 312 315 294 342 19 336 317 303 295 286 293 281 271 249 242 218 203 206 204 211 209 205 200 205 208 211 214 219 214 214
181 207 226 164 216 241 282 5 339 152 293 305 327 333 323 332 344 323 338 333 323 317 305 297 302 287 279 282 235 217 217 206 214 206 201 190 191 194 196 187 184 178 163 153
151 176 222 212 236 275 250 283 248 221 316 337 298 303 322 313 308 303 319 343 335 328 329 322 302 293 334 311 212 209 176 176 140 124 121 122 129 136 141 134 121 123 117 109
175 171 196 206 220 262 187 112 336 328 307 301 300 285 307 314 314 325 334 0 345 341 343 343 338 35 28 38 122 126 116 116 113 113 107 103 103 104 110 117 111 109 115 113
209 194 186 193 211 285 62 75 8 352 322 329 304 305 329 333 337 335 332 4 2 351 350 358 4 51 35 34 82 118 115 108 107 104 106 100 93 92 94 105 110 104 106 111
229 180 226 225 229 251 56 93 24 356 355 0 17 24 26 4 358 340 342 11 22 10 357 7 16 53 47 38 45 61 90 106 108 101 95 94 92 85 75 72 83 95 108 114
231 158 215 247 264 320 125 43 10 358 5 1 8 25 39 27 16 1 7 4 24 20 9 17 31 30 48 52 45 33 38 82 93 94 91 90 84 85 80 66 60 72 60 95
168 198 213 242 33 328 309 21 13 358 357 1 356 351 43 49 39 25 25 19 30 32 24 21 36 45 31 44 39 44 52 60 97 91 84 81 85 87 85 84 76 65 75 82